[[{"header":{"parameterUnit":"m.s-1","parameterCategory":1,"la1":30.2991,"la2":30.254,"lo1":-89.0895,"lo2":-89.0444,"dy":0.0017,"dx":0.0017,"nx":28,"ny":28,"refTime":"2023-08-19T09:00:00:Z","depth":0,"parameterNumber":2,"parameterNumberName":"U-component_of_WINDS"},"data":[0,0,0,0,0,0,0,0,0,0,0,0,0,0,0,0,0,0,0,0,0,0,0,0,0,0,0,0,0,0,0,0,0,0,0,0,0,0,0,0,0,0,0,0,0,0,0,0,0,0,0,0,0,0,0,0,0,0,-2.9489,-2.949,0,-2.9537,-2.9538,-2.9538,-2.9516,-2.9515,-2.9514,-2.9513,-2.9564,-2.9567,-2.9569,0,0,0,0,0,0,0,0,0,0,0,0,0,-2.9384,-2.9386,-2.9489,-2.949,-2.9491,-2.9537,-2.9538,-2.9538,-2.9517,-2.9515,-2.9514,-2.9512,-2.9563,-2.9566,-2.9569,0,0,0,0,0,0,0,0,0,0,0,0,0,-2.9431,-2.9387,-2.9489,-2.9485,-2.9485,-2.9537,-2.9538,-2.9538,-2.9517,-2.9515,-2.9513,-2.9512,-2.9562,-2.9566,-2.957,-2.9629,0,0,-2.9581,-2.9583,0,0,0,0,0,0,0,0,-2.9428,-2.9434,-2.9485,-2.9486,-2.9486,-2.9519,-2.9519,-2.9569,-2.9517,-2.9505,-2.9513,-2.9511,-2.9551,-2.9555,-2.9568,-2.9631,-2.9633,-2.9581,-2.9584,-2.9585,-2.9586,0,0,0,0,0,0,0,-2.9425,-2.9432,-2.9508,-2.9486,-2.9486,-2.9483,-2.9487,-2.9529,-2.9537,-2.9506,-2.9504,-2.951,-2.9551,-2.9565,-2.9569,-2.9634,-2.9581,-2.9585,-2.9587,-2.9588,-2.975,-2.9752,0,0,0,0,0,0,-2.9421,-2.943,-2.9507,-2.951,-2.9452,-2.9486,-2.9491,-2.951,-2.9537,-2.9539,-2.9512,-2.9509,-2.9559,-2.9565,-2.9571,-2.9643,-2.9585,-2.9589,-2.9591,-2.9748,-2.975,-2.9752,0,0,0,0,0,0,-2.9419,-2.9428,-2.9505,-2.9469,-2.9479,-2.949,-2.9511,-2.9512,-2.9526,-2.9541,-2.9543,-2.9524,-2.9558,-2.9566,-2.9615,-2.9644,-2.959,-2.9594,-2.9745,-2.9749,-2.9751,-2.9786,0,0,0,0,0,0,-2.9416,-2.9428,-2.9449,-2.947,-2.9481,-2.9547,-2.9513,-2.9514,-2.9532,-2.9529,-2.9553,-2.9556,-2.9557,-2.9609,-2.9618,-2.9648,-2.9597,-2.9743,-2.9747,-2.975,-2.9782,-2.9789,-2.9796,0,0,0,0,0,-2.9412,-2.9457,-2.945,-2.9459,-2.9508,-2.9548,-2.9555,-2.9554,-2.9535,-2.9557,-2.9567,-2.9555,-2.964,-2.9614,-2.9625,-2.9656,-2.9741,-2.9746,-2.975,-2.9779,-2.9788,-2.9796,0,0,0,0,0,0,-2.9439,-2.9459,-2.9452,-2.9505,-2.9525,-2.9544,-2.9572,-2.9564,-2.9591,-2.9587,-2.9587,-2.9593,-2.9643,-2.9655,-2.9626,-2.9715,-2.9687,-2.9694,-2.9706,-2.9715,-2.9722,-2.9717,-2.96,0,0,0,0,0,-2.9451,-2.9481,-2.9498,-2.9543,-2.9553,-2.9561,-2.9579,-2.9577,-2.9599,-2.9607,-2.9621,-2.9643,-2.9675,-2.9696,-2.9725,-2.9784,-2.979,-2.9811,-2.9818,-2.9824,-2.9829,-2.9862,-2.9872,-2.9768,-2.9768,-2.9767,0,0,-2.9476,-2.9491,-2.951,-2.9549,-2.9564,-2.9597,-2.9569,-2.9604,-2.9629,-2.9613,-2.966,-2.9671,-2.9696,-2.975,-2.9775,-2.9761,-2.986,-2.9829,-2.9834,-2.9836,-2.9868,-2.9878,-2.9887,-2.9771,-2.977,-2.977,0,0,-2.9539,-2.9553,-2.9592,-2.9608,-2.9632,-2.9637,-2.9647,-2.9669,-2.9675,-2.9722,-2.9712,-2.9742,-2.9796,-2.9814,-2.9831,-2.9903,-2.9893,-2.9913,-2.9949,-2.9982,-2.999,-2.9997,-3.0023,-3.0033,-2.9919,-2.9919,-2.9919,0,-2.9567,-2.9614,-2.9613,-2.965,-2.9668,-2.9655,-2.9696,-2.9712,-2.9745,-2.9758,-2.9743,-2.9812,-2.9827,-2.9886,-2.9904,-2.9918,-2.993,-2.9909,-2.9989,-2.9996,-3.0003,-3.0028,-3.0037,-2.9921,-2.9921,-2.9921,-2.992,0,-2.9649,-2.9682,-2.9711,-2.9743,-2.9764,-2.9802,-2.9809,-2.9831,-2.9828,-2.9836,-2.9885,-2.9904,-2.9938,-2.9952,-2.995,-3.0012,-3.0002,-2.9988,-2.996,-3.0015,-3.0038,-3.0048,-2.9924,-2.9923,-2.9923,-2.9922,0,0,-2.9727,-2.9759,-2.977,-2.9784,-2.9811,-2.9837,-2.9876,-2.9909,-2.9928,-2.9952,-2.9986,-3.0033,-3.002,-3.0039,-3.0039,-3.0068,-3.0124,-3.005,-3.005,-3.0063,-3.0195,-3.0205,-3.0216,-3.0119,-3.0121,-3.0122,-3.0193,0,-2.9792,-2.9858,-2.986,-2.9921,-2.9953,-2.9943,-2.9977,-2.9998,-3.0007,-3.0036,-3.0047,-3.008,-3.006,-3.0072,-3.01,-3.0111,-3.0151,-3.0107,-3.0151,-3.0152,-3.0144,-3.0228,-3.0239,-3.0304,-3.0202,-3.0203,-3.0204,0,-2.9875,-2.9901,-2.9966,-2.9989,-3.0002,-3.0033,-3.0064,-3.0092,-3.0116,-3.0121,-3.0143,-3.0139,-3.0181,-3.0152,-3.021,-3.018,-3.0199,-3.0208,-3.021,-3.0214,-3.0181,-3.0234,-3.0325,-3.0335,-3.0219,-3.0218,-3.0217,0,-2.9926,-2.9978,-3.0023,-3.0036,-3.0064,-3.0086,-3.0099,-3.0122,-3.0142,-3.017,-3.0183,-3.0216,-3.0234,-3.026,-3.0266,-3.0245,-3.0325,-3.0296,-3.033,-3.033,-3.0347,-3.0346,-3.0442,-3.036,-3.036,-3.0359,-3.0359,0,-2.9997,-3.0038,-3.0047,-3.0075,-3.012,-3.0123,-3.0168,-3.018,-3.02,-3.0231,-3.0226,-3.0255,-3.0262,-3.0293,-3.0299,-3.0347,-3.0355,-3.0361,-3.0361,-3.0361,-3.036,-3.0372,-3.0368,-3.0362,-3.0361,-3.0361,-3.036,0,-3.0062,-3.0069,-3.0119,-3.0142,-3.0149,-3.0181,-3.0201,-3.0229,-3.0238,-3.0278,-3.0288,-3.0302,-3.0339,-3.0348,-3.0392,-3.0396,-3.0453,-3.0449,-3.0444,-3.0444,-3.0478,-3.0474,-3.0585,-3.06,-3.0508,-3.0509,-3.0509,0,-3.0106,-3.0137,-3.0163,-3.0184,-3.0197,-3.023,-3.0251,-3.0255,-3.0277,-3.0308,-3.0333,-3.0369,-3.0398,-3.0459,-3.0474,-3.0508,-3.0506,-3.0542,-3.0511,-3.051,-3.0506,-3.0504,-3.0508,-3.0548,-3.0549,-3.055,-3.055,0,-3.0185,-3.0188,-3.0217,-3.0249,-3.0273,-3.0298,-3.0322,-3.034,-3.0348,-3.0373,-3.0411,-3.0434,-3.0479,-3.0516,-3.0551,-3.0566,-3.056,-3.056,-3.057,-3.057,-3.0565,-3.0568,-3.046,-3.0558,-3.0557,-3.0556,-3.0556,-3.0556,-3.0241,-3.0268,-3.0291,-3.0325,-3.0343,-3.0366,-3.0394,-3.0406,-3.0437,-3.0474,-3.0476,-3.0517,-3.0543,-3.0589,-3.0606,-3.0639,-3.0628,-3.0642,-3.0646,-3.0649,-3.0652,-3.056,-3.0646,-3.0646,-3.0646,-3.0645,-3.0645,0,-3.032,-3.0334,-3.0365,-3.0399,-3.0426,-3.0417,-3.0444,-3.0468,-3.0504,-3.0528,-3.0557,-3.0601,-3.0637,-3.0655,-3.0692,-3.0715,-3.0713,-3.0724,-3.0722,-3.0726,-3.066,-3.0648,-3.0725,-3.0725,-3.0725,-3.0725,-3.0725,-3.0725,-3.0364,-3.0409,-3.0415,-3.0471,-3.0486,-3.0525,-3.0542,-3.0563,-3.0583,-3.0632,-3.0661,-3.0673,-3.0696,-3.0734,-3.0767,-3.0772,-3.0785,-3.0798,-3.0801,-3.0739,-3.0731,-3.0723,-3.0712,-3.0801,-3.0801,-3.0864,-3.0865,-3.0865]},{"header":{"parameterUnit":"m.s-1","parameterCategory":1,"la1":30.2991,"la2":30.254,"lo1":-89.0895,"lo2":-89.0444,"dy":0.0017,"dx":0.0017,"nx":28,"ny":28,"refTime":"2023-08-19T09:00:00:Z","depth":0,"parameterNumber":3,"parameterNumberName":"V-component_of_WINDS"},"data":[0,0,0,0,0,0,0,0,0,0,0,0,0,0,0,0,0,0,0,0,0,0,0,0,0,0,0,0,0,0,0,0,0,0,0,0,0,0,0,0,0,0,0,0,0,0,0,0,0,0,0,0,0,0,0,0,0,0,3.271,3.271,0,3.2698,3.2698,3.2698,3.2731,3.2732,3.2733,3.2734,3.2715,3.2714,3.2712,0,0,0,0,0,0,0,0,0,0,0,0,0,3.2756,3.2755,3.271,3.271,3.2709,3.2698,3.2698,3.2698,3.2731,3.2732,3.2733,3.2734,3.2716,3.2714,3.2712,0,0,0,0,0,0,0,0,0,0,0,0,0,3.2739,3.2754,3.271,3.2725,3.2726,3.2698,3.2698,3.2698,3.273,3.2732,3.2734,3.2735,3.2716,3.2714,3.2712,3.2667,0,0,3.2705,3.2704,0,0,0,0,0,0,0,0,3.274,3.2737,3.2723,3.2724,3.2725,3.2718,3.2707,3.2687,3.273,3.2729,3.2734,3.2736,3.2714,3.2712,3.2707,3.2666,3.2665,3.2705,3.2704,3.2703,3.2702,0,0,0,0,0,0,0,3.2741,3.2738,3.2705,3.2722,3.2724,3.273,3.273,3.2704,3.2712,3.2729,3.2731,3.273,3.2715,3.2709,3.2706,3.2665,3.2705,3.2703,3.2702,3.2701,3.2588,3.2586,0,0,0,0,0,0,3.2741,3.2739,3.2705,3.2705,3.2737,3.2728,3.2728,3.2718,3.2713,3.2714,3.2728,3.2731,3.2712,3.2709,3.2706,3.2653,3.2703,3.2701,3.2699,3.259,3.2588,3.2586,0,0,0,0,0,0,3.2742,3.2738,3.2706,3.2722,3.2719,3.2726,3.2715,3.2717,3.2711,3.2713,3.2714,3.272,3.2713,3.2709,3.2677,3.2653,3.27,3.2698,3.2592,3.2589,3.2587,3.2548,0,0,0,0,0,0,3.2743,3.2738,3.2722,3.2722,3.2718,3.2679,3.2714,3.2716,3.2708,3.2711,3.2706,3.2706,3.2714,3.268,3.2675,3.2651,3.2696,3.2594,3.259,3.2587,3.2551,3.2544,3.2538,0,0,0,0,0,3.2745,3.271,3.2721,3.2717,3.2698,3.2677,3.2675,3.2686,3.2706,3.2689,3.2691,3.2706,3.2657,3.2677,3.2671,3.2646,3.2595,3.2591,3.2588,3.2554,3.2546,3.2538,0,0,0,0,0,0,3.2704,3.271,3.2722,3.2687,3.2682,3.2683,3.2662,3.2677,3.2664,3.2668,3.2681,3.2679,3.2645,3.2642,3.2664,3.2603,3.2629,3.2624,3.2606,3.2597,3.2591,3.2592,3.2694,0,0,0,0,0,3.2692,3.2676,3.2681,3.2649,3.2646,3.2655,3.2646,3.2656,3.265,3.2647,3.2646,3.2638,3.2621,3.2609,3.2593,3.2551,3.255,3.2531,3.2525,3.252,3.2515,3.2493,3.2484,3.2573,3.2573,3.2573,0,0,3.2665,3.2666,3.2655,3.2641,3.2638,3.262,3.2652,3.2632,3.2618,3.2643,3.2614,3.2613,3.2605,3.2568,3.2551,3.2565,3.249,3.2515,3.2511,3.2509,3.2488,3.248,3.2472,3.2571,3.2571,3.2572,0,0,3.2607,3.2606,3.258,3.2577,3.2573,3.258,3.2573,3.2573,3.2574,3.2545,3.2564,3.2547,3.2517,3.2511,3.2504,3.2445,3.2459,3.2439,3.2405,3.2383,3.2376,3.237,3.2349,3.2342,3.2434,3.2434,3.2434,0,3.2573,3.2548,3.2564,3.2543,3.2536,3.2561,3.2534,3.2529,3.2519,3.2514,3.2529,3.2493,3.2489,3.2452,3.2438,3.2431,3.2424,3.2439,3.2377,3.2371,3.2365,3.2345,3.2337,3.2432,3.2432,3.2433,3.2433,0,3.2507,3.249,3.2469,3.2462,3.2453,3.2429,3.2439,3.2428,3.2439,3.2443,3.2413,3.241,3.2394,3.2386,3.2395,3.235,3.2358,3.2375,3.2402,3.2354,3.2335,3.2328,3.2429,3.243,3.243,3.2431,0,0,3.2422,3.2426,3.2418,3.2415,3.2414,3.24,3.2376,3.2364,3.2353,3.2346,3.2326,3.2301,3.2317,3.2309,3.2318,3.2299,3.2253,3.2318,3.2318,3.2306,3.2203,3.219,3.2181,3.2262,3.2261,3.226,3.2203,0,3.2366,3.2328,3.2342,3.2303,3.2287,3.2311,3.229,3.2286,3.2289,3.2275,3.2278,3.226,3.2283,3.2278,3.2261,3.2262,3.2232,3.2266,3.2243,3.2242,3.2244,3.2171,3.2157,3.2104,3.2196,3.2195,3.2194,0,3.2294,3.2287,3.2246,3.2249,3.2242,3.2224,3.2214,3.22,3.2196,3.2199,3.2192,3.2204,3.218,3.2208,3.2175,3.2198,3.2189,3.2188,3.2186,3.2184,3.2215,3.2167,3.2087,3.2079,3.2183,3.2184,3.2184,0,3.2236,3.2216,3.219,3.2187,3.2188,3.2175,3.2174,3.2172,3.2164,3.2154,3.2149,3.2136,3.2128,3.2117,3.2126,3.2145,3.2091,3.2119,3.2092,3.2092,3.2079,3.2079,3.1997,3.2074,3.2074,3.2074,3.2074,0,3.2171,3.2146,3.2164,3.2148,3.212,3.2136,3.2107,3.2109,3.2107,3.209,3.2109,3.2092,3.2105,3.2089,3.2096,3.2067,3.2063,3.2065,3.2067,3.2063,3.2063,3.2057,3.2061,3.2072,3.2072,3.2073,3.2073,0,3.2102,3.2113,3.2086,3.2091,3.2092,3.2071,3.2074,3.2058,3.2064,3.2042,3.2038,3.2046,3.2029,3.2037,3.2017,3.2022,3.1985,3.1992,3.1987,3.1989,3.1962,3.1964,3.1872,3.186,3.1945,3.1944,3.1943,0,3.206,3.2041,3.2045,3.2036,3.2035,3.2021,3.2013,3.2028,3.2019,3.2013,3.1998,3.1983,3.1972,3.1942,3.1945,3.1931,3.1937,3.1906,3.1935,3.1932,3.1937,3.1938,3.1936,3.19,3.1899,3.1898,3.1897,0,3.1984,3.1991,3.198,3.1972,3.1963,3.1956,3.1951,3.1942,3.1957,3.1945,3.1929,3.1921,3.1903,3.1887,3.1875,3.1873,3.1887,3.1889,3.1882,3.1877,3.1876,3.1876,3.1971,3.189,3.1891,3.1892,3.1892,3.1892,3.1927,3.1912,3.1912,3.19,3.1898,3.1893,3.1879,3.1883,3.1871,3.1859,3.1868,3.1849,3.1845,3.183,3.1826,3.1811,3.1823,3.1812,3.181,3.1807,3.1803,3.1879,3.1808,3.1808,3.1809,3.1809,3.1809,0,3.1852,3.1854,3.1842,3.1836,3.1826,3.1843,3.1838,3.1828,3.1812,3.1808,3.1797,3.1778,3.1764,3.1766,3.1752,3.1739,3.1745,3.1735,3.1736,3.1735,3.1793,3.1801,3.173,3.173,3.173,3.173,3.173,3.173,3.1811,3.1787,3.1794,3.1768,3.177,3.1753,3.1749,3.1744,3.1742,3.1721,3.171,3.1712,3.171,3.1697,3.1684,3.1685,3.1678,3.1666,3.1669,3.1723,3.1731,3.1738,3.1745,3.1664,3.1664,3.1612,3.1611,3.1611]}]]